When you browse on this site, cookies collect data to enhance your experience and personalize the content and advertising you see.
Visit our Privacy Policy to learn more. By continuing to use the site, you agree to this use of cookies and data.
  • Em Portugal
  • Lista de países
  • Para 7 dias
  • Temperatura da água
  • Mapas de satélite
  • Mapa do tempo
  • Widgets de tempo
  • user-avatar
    Iniciar Sessão

    Previsão horária em Stepanakert

    Hoje, 20 Julho, Sábado

    Tempo Temperatura Precipitação Vento Pressão Humidade
    00:00 +24°C° 0 mm 2 m/s 692 mmHg 64%
    01:00 +24°C° 0 mm 2 m/s 692 mmHg 64%
    02:00 +23°C° 0 mm 1 m/s 692 mmHg 65%
    03:00 +23°C° 0 mm 1 m/s 692 mmHg 65%
    04:00 +23°C° 0 mm 1 m/s 693 mmHg 65%
    05:00 +24°C° 0 mm 1 m/s 693 mmHg 65%
    06:00 +24°C° 0 mm 1 m/s 694 mmHg 65%
    07:00 +26°C° 0 mm 1 m/s 694 mmHg 59%
    08:00 +27°C° 0 mm 2 m/s 694 mmHg 54%
    09:00 +29°C° 0 mm 2 m/s 695 mmHg 49%
    10:00 +30°C° 0 mm 3 m/s 695 mmHg 45%
    11:00 +31°C° 0 mm 3 m/s 695 mmHg 41%
    12:00 +33°C° 0 mm 3 m/s 695 mmHg 37%
    13:00 +33°C° 0 mm 4 m/s 694 mmHg 36%
    14:00 +34°C° 0 mm 4 m/s 694 mmHg 35%
    15:00 +34°C° 0 mm 4 m/s 694 mmHg 34%
    16:00 +33°C° 0 mm 4 m/s 694 mmHg 37%
    17:00 +32°C° 0 mm 4 m/s 694 mmHg 40%
    18:00 +30°C° 0 mm 4 m/s 694 mmHg 43%
    19:00 +28°C° 0 mm 3 m/s 694 mmHg 47%
    20:00 +27°C° 0 mm 3 m/s 694 mmHg 50%
    21:00 +25°C° 0 mm 2 m/s 694 mmHg 54%
    22:00 +24°C° 0 mm 2 m/s 694 mmHg 54%
    23:00 +24°C° 0 mm 2 m/s 694 mmHg 54%

    Amanhã, 21 Julho, Domingo

    Tempo Temperatura Precipitação Vento Pressão Humidade
    00:00 +23°C° 0 mm 2 m/s 695 mmHg 55%
    01:00 +23°C° 0 mm 2 m/s 694 mmHg 55%
    02:00 +23°C° 0 mm 2 m/s 694 mmHg 55%
    03:00 +23°C° 0 mm 2 m/s 694 mmHg 55%
    04:00 +24°C° 0 mm 2 m/s 694 mmHg 55%
    05:00 +24°C° 0 mm 2 m/s 694 mmHg 55%
    06:00 +24°C° 0 mm 2 m/s 695 mmHg 56%
    07:00 +26°C° 0 mm 2 m/s 695 mmHg 51%
    08:00 +28°C° 0 mm 2 m/s 695 mmHg 46%
    09:00 +29°C° 0 mm 3 m/s 695 mmHg 41%
    10:00 +31°C° 0 mm 3 m/s 695 mmHg 38%
    11:00 +33°C° 0 mm 3 m/s 695 mmHg 36%
    12:00 +34°C° 0 mm 3 m/s 694 mmHg 34%
    13:00 +35°C° 0 mm 3 m/s 694 mmHg 33%
    14:00 +35°C° 0 mm 3 m/s 693 mmHg 32%
    15:00 +36°C° 0 mm 3 m/s 693 mmHg 31%
    16:00 +35°C° 0 mm 3 m/s 692 mmHg 34%
    17:00 +34°C° 0 mm 2 m/s 692 mmHg 38%
    18:00 +34°C° 0 mm 2 m/s 692 mmHg 41%
    19:00 +30°C° 0 mm 2 m/s 692 mmHg 45%
    20:00 +28°C° 0 mm 1 m/s 692 mmHg 49%
    21:00 +26°C° 0 mm 1 m/s 692 mmHg 53%
    22:00 +26°C° 0 mm 2 m/s 692 mmHg 53%
    23:00 +26°C° 0 mm 2 m/s 692 mmHg 53%

    Depois de amanhã, 22 Julho, Segunda-feira

    Tempo Temperatura Precipitação Vento Pressão Humidade
    00:00 +25°C° 0 mm 2 m/s 692 mmHg 53%
    01:00 +25°C° 0 mm 2 m/s 691 mmHg 52%
    02:00 +25°C° 0 mm 1 m/s 691 mmHg 52%
    03:00 +25°C° 0 mm 1 m/s 691 mmHg 51%
    04:00 +26°C° 0 mm 1 m/s 691 mmHg 52%
    05:00 +26°C° 0 mm 1 m/s 691 mmHg 52%
    06:00 +26°C° 0 mm 1 m/s 691 mmHg 53%
    07:00 +28°C° 0 mm 1 m/s 691 mmHg 49%
    08:00 +30°C° 0 mm 1 m/s 692 mmHg 46%
    09:00 +31°C° 0 mm 2 m/s 692 mmHg 42%
    10:00 +32°C° 0 mm 2 m/s 692 mmHg 41%
    11:00 +34°C° 0 mm 3 m/s 691 mmHg 40%
    12:00 +35°C° 0 mm 3 m/s 691 mmHg 39%
    13:00 +35°C° 0 mm 3 m/s 691 mmHg 39%
    14:00 +35°C° 0 mm 3 m/s 691 mmHg 38%
    15:00 +35°C° 0 mm 3 m/s 690 mmHg 38%
    16:00 +34°C° 0 mm 3 m/s 690 mmHg 42%
    17:00 +33°C° 0 mm 3 m/s 690 mmHg 46%
    18:00 +30°C° 0 mm 3 m/s 689 mmHg 51%
    19:00 +28°C° 0 mm 3 m/s 690 mmHg 57%
    20:00 +27°C° 0 mm 2 m/s 690 mmHg 62%
    21:00 +25°C° 0 mm 1 m/s 690 mmHg 68%
    22:00 +24°C° 0 mm 1 m/s 690 mmHg 69%
    23:00 +24°C° 0 mm 1 m/s 689 mmHg 70%

    23 Julho, Terça-feira

    Tempo Temperatura Precipitação Vento Pressão Humidade
    00:00 +24°C° 0 mm 1 m/s 689 mmHg 71%
    01:00 +23°C° 0 mm 1 m/s 689 mmHg 71%
    02:00 +23°C° 0 mm 1 m/s 689 mmHg 71%
    03:00 +23°C° 0 mm 2 m/s 689 mmHg 71%
    04:00 +23°C° 0 mm 2 m/s 690 mmHg 69%
    05:00 +23°C° 0 mm 1 m/s 690 mmHg 67%
    06:00 +24°C° 0 mm 1 m/s 690 mmHg 66%
    07:00 +25°C° 0 mm 1 m/s 690 mmHg 59%
    08:00 +27°C° 0 mm 2 m/s 690 mmHg 52%
    09:00 +29°C° 0 mm 2 m/s 690 mmHg 46%
    10:00 +30°C° 0 mm 3 m/s 690 mmHg 43%
    11:00 +31°C° 0 mm 3 m/s 690 mmHg 41%
    12:00 +33°C° 0 mm 3 m/s 690 mmHg 38%
    13:00 +34°C° 0 mm 4 m/s 689 mmHg 38%
    14:00 +34°C° 0 mm 4 m/s 689 mmHg 38%
    15:00 +34°C° 0 mm 4 m/s 688 mmHg 38%
    16:00 +33°C° 0 mm 4 m/s 688 mmHg 43%
    17:00 +31°C° 0 mm 3 m/s 688 mmHg 47%
    18:00 +30°C° 0 mm 3 m/s 688 mmHg 51%
    19:00 +28°C° 0 mm 2 m/s 688 mmHg 55%
    20:00 +26°C° 0 mm 2 m/s 689 mmHg 59%
    21:00 +25°C° 0 mm 1 m/s 689 mmHg 64%
    22:00 +25°C° 0 mm 1 m/s 689 mmHg 64%
    23:00 +24°C° 0 mm 1 m/s 689 mmHg 64%

    24 Julho, Quarta-feira

    Tempo Temperatura Precipitação Vento Pressão Humidade
    00:00 +24°C° 0 mm 1 m/s 689 mmHg 64%
    01:00 +24°C° 0 mm 1 m/s 689 mmHg 64%
    02:00 +24°C° 0 mm 1 m/s 689 mmHg 64%
    03:00 +23°C° 0 mm 1 m/s 689 mmHg 64%
    04:00 +24°C° 0 mm 1 m/s 689 mmHg 64%
    05:00 +24°C° 0 mm 1 m/s 689 mmHg 63%
    06:00 +25°C° 0 mm 1 m/s 689 mmHg 62%
    07:00 +27°C° 0 mm 1 m/s 690 mmHg 56%
    08:00 +28°C° 0 mm 1 m/s 690 mmHg 51%
    09:00 +30°C° 0 mm 2 m/s 690 mmHg 45%
    10:00 +31°C° 0 mm 2 m/s 690 mmHg 43%
    11:00 +32°C° 0 mm 2 m/s 689 mmHg 40%
    12:00 +34°C° 0 mm 3 m/s 689 mmHg 38%
    13:00 +35°C° 0 mm 3 m/s 689 mmHg 37%
    14:00 +35°C° 0 mm 3 m/s 689 mmHg 36%
    15:00 +36°C° 0 mm 3 m/s 688 mmHg 35%
    16:00 +35°C° 0 mm 3 m/s 688 mmHg 38%
    17:00 +34°C° 0 mm 3 m/s 688 mmHg 40%
    18:00 +32°C° 0 mm 2 m/s 688 mmHg 43%
    19:00 +30°C° 0 mm 2 m/s 688 mmHg 47%
    20:00 +28°C° 0 mm 2 m/s 688 mmHg 51%
    21:00 +26°C° 0 mm 2 m/s 688 mmHg 55%
    22:00 +26°C° 0 mm 1 m/s 688 mmHg 56%
    23:00 +25°C° 0 mm 1 m/s 688 mmHg 57%

    25 Julho, Quinta-feira

    Tempo Temperatura Precipitação Vento Pressão Humidade
    00:00 +25°C° 0 mm 1 m/s 688 mmHg 57%
    01:00 +25°C° 0 mm 1 m/s 688 mmHg 58%
    02:00 +24°C° 0 mm 1 m/s 688 mmHg 58%
    03:00 +24°C° 0 mm 1 m/s 688 mmHg 59%
    04:00 +24°C° 0 mm 1 m/s 689 mmHg 59%
    05:00 +25°C° 0 mm 1 m/s 689 mmHg 59%
    06:00 +25°C° 0 mm 1 m/s 689 mmHg 58%
    07:00 +27°C° 0 mm 1 m/s 689 mmHg 54%
    08:00 +29°C° 0 mm 2 m/s 689 mmHg 49%
    09:00 +30°C° 0 mm 2 m/s 690 mmHg 45%
    10:00 +31°C° 0 mm 2 m/s 689 mmHg 43%
    11:00 +33°C° 0 mm 3 m/s 689 mmHg 41%
    12:00 +34°C° 0 mm 3 m/s 689 mmHg 39%
    13:00 +35°C° 0 mm 3 m/s 689 mmHg 38%
    14:00 +35°C° 0 mm 3 m/s 688 mmHg 37%
    15:00 +35°C° 0 mm 3 m/s 688 mmHg 37%
    16:00 +34°C° 0 mm 3 m/s 687 mmHg 39%
    17:00 +33°C° 0 mm 3 m/s 687 mmHg 41%
    18:00 +33°C° 0 mm 3 m/s 687 mmHg 44%
    19:00 +29°C° 0 mm 2 m/s 687 mmHg 49%
    20:00 +27°C° 0 mm 1 m/s 687 mmHg 54%
    21:00 +25°C° 0 mm 1 m/s 687 mmHg 59%
    22:00 +24°C° 0 mm 1 m/s 687 mmHg 60%
    23:00 +24°C° 0 mm 1 m/s 687 mmHg 62%
    Mostrar mais